Regional Weather Roundup
Issued by NWS Kansas City/Pleasant Hill, MO

Home | Current Version | Previous Version | Graphics & Text | Print | Product List | Glossary Off
Versions: 1 2 3 4 5 6 7 8 9 10 11 12 13 14 15 16 17 18 19 20 21 22 23 24 25 26 27 28 29 30 31 32 33 34 35 36 37 38 39 40 41 42 43 44 45 46 47 48 49 50

000
ASUS43 KEAX 310404
RWREAX

WEATHER ROUNDUP FOR EASTERN KANSAS AND NORTHWEST MISSOURI
NATIONAL WEATHER SERVICE KANSAS CITY/PLEASANT HILL MO
1000 PM CST FRI JAN 30 2015

KSZ040-057-103>105-MOZ028-029-037-043-310500-
...KANSAS CITY METROPOLITAN AREA...

CITY           SKY/WX    TMP DP  RH WIND       PRES   REMARKS
K.C. INTL      CLOUDY    33  23  66 S9        30.35F WCI  25
K.C. DOWNTOWN  CLOUDY    36  21  54 S5        30.37S WCI  32
LEES SUMMIT    CLOUDY    35  19  52 S5        30.37S WCI  31
OLATHE - IXD   CLOUDY    33  23  66 S5        30.36F WCI  29
OLATHE - OJC   CLOUDY    34  21  59 S3        30.35F
LAWRENCE       CLOUDY    33  23  66 SE3       30.37S

$$

MOZ001>008-011>017-020>025-030>033-038>040-044>046-053-054-310500-
...NORTHERN AND CENTRAL MISSOURI...

CITY           SKY/WX    TMP DP  RH WIND       PRES   REMARKS
ST. JOSEPH     CLOUDY    30  22  72 SE6       30.36F WCI  24
MOSBY          CLOUDY    30  23  74 CALM      30.38S
WARRENSBURG    CLOUDY    32  19  59 E3        30.38F
WHITEMAN AFB   CLOUDY    31  20  62 CALM      30.37F
CLINTON        CLOUDY    32  27  80 CALM      30.39S
SEDALIA        CLOUDY    32  21  64 SE3       30.39S
WARSAW         NOT AVBL
MARSHALL       CLOUDY    32  23  69 E5        30.40S WCI  27
CHILLICOTHE      N/A     29  20  69 S3        30.39S
MOBERLY        MOCLDY    28  19  69 S5        30.39F WCI  23
KIRKSVILLE     MOCLDY    26  19  74 SW7       30.36F WCI  18

$$

MOZ041-047>049-056>058-063>065-088>090-097-310500-
...EASTERN AND SOUTHERN MISSOURI...

CITY           SKY/WX    TMP DP  RH WIND       PRES   REMARKS
ST. LOUIS INTL MOCLDY    33  20  58 SE6       30.42F WCI  28
SPIRIT OF STL  PTCLDY    23  18  81 CALM      30.41F
COLUMBIA       CLOUDY    30  18  60 SE6       30.39S WCI  24
JEFFERSON CITY CLOUDY    28  19  69 CALM      30.41S
MEXICO         MOCLDY    30  27  86 S6        30.39F WCI  24
HANNIBAL       PTCLDY    27  16  63 S6        30.38F WCI  20
ROLLA          CLOUDY    30  21  69 CALM      30.37F
LEBANON        CLOUDY    36  16  44 SE3       30.37F
OSAGE BEACH    CLOUDY    34  16  47 E3        30.39S
SPRINGFIELD    CLOUDY    38  22  52 S7        30.35F WCI  33
NEVADA         CLOUDY    36  23  60 CALM      30.38F
JOPLIN         CLOUDY    37  27  67 CALM      30.37S
WEST PLAINS    MOCLDY    33  19  56 S3        30.39F

$$

IAZ060-094-KSZ022-034>040-054-083-096-NEZ052-066-093-310500-
...KANSAS...SOUTHEAST NEBRASKA AND IOWA...

CITY           SKY/WX    TMP DP  RH WIND       PRES   REMARKS
TOPEKA         CLOUDY    39  24  55 S5        30.36F
MANHATTAN      LGT RAIN  38  32  79 SW6       30.33F WCI  33
EMPORIA        CLOUDY    37  24  59 S5        30.34F WCI  33
CHANUTE        CLOUDY    38  26  62 CALM      30.36F
WICHITA        LGT RAIN  39  28  64 SW5       30.33S
OMAHA          CLOUDY    33  25  72 S12       30.28F WCI  24
LINCOLN        CLOUDY    34  26  72 S8        30.28F WCI  27
FALLS CITY     CLOUDY    32  21  64 S7        30.33S WCI  26
LAMONI         CLOUDY    27  17  66 S8        30.32F WCI  19
DES MOINES     MOCLDY    28  15  58 S7        30.30F WCI  21

$$




USA.gov is the U.S. government's official web portal to all federal, state and local government web resources and services.